Chicopee, MA

3:11 PM EST on February 21, 2018 (GMT -0500)
Westover Air Reserve Base / Metropolitan Airport

Weather History for KCEF - May, 2013

Change the Weather History Date:

Wednesday, May 1, 2013

  Actual Average Record
Temperature  
Mean Temperature 54 °F -  
Max Temperature 75 °F 64 °F 87 °F (2001)
Min Temperature 34 °F 42 °F 24 °F (2008)
Degree Days  
Heating Degree Days 10    
Growing Degree Days 4 (Base 50)    
Moisture  
Dew Point 34 °F    
Average Humidity 49    
Maximum Humidity 94    
Minimum Humidity 21    
Precipitation  
Precipitation 0.00 in - - ()
Sea Level Pressure  
Sea Level Pressure 30.42 in    
Wind  
Wind Speed 3 mph (South)    
Max Wind Speed 15 mph    
Max Gust Speed -    
Visibility 10 miles    
Events      
Averages and records for this station are not official NWS values.
T = Trace of Precipitation, MM = Missing Value Source: NWS Daily Summary

Daily Weather History Graph

Daily Weather History Graph

Search for Another Location

Airport or City:

Trip Planner

Search our weather history database for the weather conditions in past years. The results will help you decide how hot, cold, wet, or windy it might be!

Date:

Astronomy

May. 01, 2013 Rise Set
Actual Time 5:45 AM EDT 7:49 PM EDT
Civil Twilight 5:14 AM EDT 8:20 PM EDT
Nautical Twilight 4:37 AM EDT 8:57 PM EDT
Astronomical Twilight 3:56 AM EDT 9:39 PM EDT
Moon 12:57 AM EDT (5/1) 11:20 AM EDT (5/1)
Length of Visible Light 15h 05m
Length of Day
14h 04m
Waning Gibbous, 59% of the Moon is Illuminated
May 1
Waning Gibbous
May 2
Last Quarter
May 9
New
May 18
First Quarter
May 25
Full

Hourly Weather History & Observations

Time (EDT) Temp. Windchill Dew Point Humidity Pressure Visibility Wind Dir Wind Speed Gust Speed Precip Events Conditions
12:55 AM 43.2 °F - 29.7 °F 59% 30.36 in 10.0 mi Calm Calm - N/A   Clear
1:55 AM 40.8 °F - 32.9 °F 73% 30.37 in 10.0 mi Calm Calm - N/A   Clear
2:55 AM 36.3 °F - 31.3 °F 82% 30.38 in 10.0 mi Calm Calm - N/A   Clear
3:55 AM 36.9 °F - 30.9 °F 79% 30.40 in 10.0 mi Calm Calm - N/A   Clear
4:55 AM 35.1 °F - 33.4 °F 94% 30.41 in 10.0 mi Calm Calm - N/A   Clear
5:55 AM 34.2 °F - 30.7 °F 87% 30.42 in 10.0 mi Calm Calm - N/A   Clear
6:55 AM 38.3 °F 35.9 °F 36.1 °F 92% 30.44 in 10.0 mi NNE 3.5 mph - N/A   Clear
7:55 AM 47.8 °F - 34.0 °F 59% 30.46 in 10.0 mi NE 3.5 mph - N/A   Clear
8:55 AM 54.5 °F - 31.3 °F 41% 30.46 in 10.0 mi Calm Calm - N/A   Clear
9:55 AM 59.4 °F - 28.8 °F 31% 30.47 in 10.0 mi Calm Calm - N/A   Clear
10:55 AM 65.1 °F - 30.9 °F 28% 30.46 in 10.0 mi WSW 5.8 mph - N/A   Clear
11:55 AM 67.5 °F - 29.1 °F 24% 30.44 in 10.0 mi SE 8.1 mph - N/A   Clear
12:55 PM 69.8 °F - 31.8 °F 25% 30.43 in 10.0 mi South 5.8 mph - N/A   Clear
1:55 PM 71.8 °F - 32.5 °F 24% 30.41 in 10.0 mi Calm Calm - N/A   Clear
2:55 PM 73.8 °F - 32.9 °F 22% 30.40 in 10.0 mi SE 10.4 mph - N/A   Clear
3:55 PM 75.0 °F - 32.4 °F 21% 30.38 in 10.0 mi Variable 5.8 mph - N/A   Clear
4:55 PM 75.7 °F - 32.9 °F 21% 30.38 in 10.0 mi Variable 6.9 mph - N/A   Clear
5:55 PM 74.1 °F - 31.5 °F 21% 30.38 in 10.0 mi Variable 3.5 mph - N/A   Clear
6:55 PM 72.5 °F - 38.1 °F 29% 30.40 in 10.0 mi South 15.0 mph - N/A   Clear
7:55 PM 63.7 °F - 43.2 °F 47% 30.43 in 10.0 mi South 13.8 mph - N/A   Clear
8:55 PM 59.7 °F - 43.0 °F 54% 30.45 in 10.0 mi SSW 9.2 mph - N/A   Clear
9:55 PM 56.8 °F - 40.5 °F 54% 30.48 in 10.0 mi SSW 9.2 mph - N/A   Clear
10:55 PM 53.2 °F - 38.3 °F 57% 30.48 in 10.0 mi SSW 6.9 mph - N/A   Clear
11:55 PM 51.1 °F - 39.0 °F 63% 30.47 in 10.0 mi Calm Calm - N/A   Clear